« Back
NWS Peachtree City, Ga » Text Product » GA Regional Weather Roundup


Printer-friendly Version
Current Version              Previous Versions:   1  2  3  4  5  6  7  8  9  

Regional Weather Roundup

857
ASUS42 KFFC 311203
RWRGA
WEATHER ROUNDUP FOR GEORGIA
NATIONAL WEATHER SERVICE PEACHTREE CITY GA
800 AM EDT THU JUL 31 2014

NOTE: "FAIR" INDICATES FEW OR NO CLOUDS BELOW 12,000 FEET WITH NO
SIGNIFICANT WEATHER AND/OR OBSTRUCTIONS TO VISIBILITY.

* = USE WITH CAUTION. THE STATIONS MARKED WITH AN ASTERISK MAY NOT
REPORT WEATHER SUCH AS PRECIPITATION, FOG, OR THUNDER AND ARE NOT
QUALITY CONTROLLED BY NWS.

THE REMARK "TC" DENOTES TEMPERATURE READING IN DEGREES CELSIUS.

GAZ001>058-311300-
NORTH GEORGIA

CITY           SKY/WX    TMP DP  RH WIND       PRES   REMARKS
ATLANTA        CLOUDY    71  63  75 E8        30.05S
6HR MIN TEMP:  69; 6HR MAX TEMP:  73;

ATHENS         CLOUDY    69  64  84 NE5       30.07R
6HR MIN TEMP:  68; 6HR MAX TEMP:  69;

CHAMBLEE       CLOUDY    70  60  70 CALM      30.07R
6HR MIN TEMP:  67; 6HR MAX TEMP:  70;

PEACHTREE CITY CLOUDY    66  63  90 CALM      30.06S FOG
6HR MIN TEMP:  64; 6HR MAX TEMP:  66;

ROME           CLOUDY    66  59  78 CALM      30.07R
6HR MIN TEMP:  63; 6HR MAX TEMP:  67;

WEST ATLANTA   CLOUDY    69  63  81 CALM      30.06R
6HR MIN TEMP:  65; 6HR MAX TEMP:  69;

GAINESVILLE    CLOUDY    68  57  68 E6        30.10S
6HR MIN TEMP:  67; 6HR MAX TEMP:  69;

CARTERSVILLE   PTSUNNY   64  59  83 CALM      30.08S
6HR MIN TEMP:  60; 6HR MAX TEMP:  65;



CITY           SKY/WX    TMP DP  RH WIND       PRES   REMARKS
DALTON*        CLOUDY    63  61  94 CALM      30.08S
LAWRENCEVILLE* SUNNY     66  55  68 NE7       30.07R
MARIETTA       CLOUDY    68  62  81 VRB3      30.07S
KENNESAW*      PTSUNNY   66  59  77 NE5       30.07F
$$

GAZ059>098-102>109-311300-
CENTRAL GEORGIA

CITY           SKY/WX    TMP DP  RH WIND       PRES   REMARKS
AUGUSTA-BUSH   CLOUDY    74  69  85 CALM      30.04R
6HR MIN TEMP:  70; 6HR MAX TEMP:  74;

AUGUSTA-DANIEL CLOUDY    75  68  78 E7        30.05R
6HR MIN TEMP:  74; 6HR MAX TEMP:  77;

COLUMBUS       PTSUNNY   70  61  73 CALM      30.02S
6HR MIN TEMP:  67; 6HR MAX TEMP:  72;

MACON          PTSUNNY   69  68  96 CALM      30.02S
6HR MIN TEMP:  65; 6HR MAX TEMP:  69;

ROBINS AFB     PTSUNNY   70  68  93 N2        30.02S


CITY           SKY/WX    TMP DP  RH WIND       PRES   REMARKS
LAGRANGE*      PTSUNNY   71  65  82 CALM      30.04S
SYLVANIA*      SUNNY     75  73  95 E3        30.03R
MILLEDGEVILLE* PTSUNNY   68  63  83 NE3       30.04R
$$

GAZ099>101-110>166-311300-
SOUTH GEORGIA

CITY           SKY/WX    TMP DP  RH WIND       PRES   REMARKS
SAVANNAH       HVY RAIN  76  73  91 E3        30.01R FOG
6HR MIN TEMP:  74; 6HR MAX TEMP:  76; 6HR PCP:  0.03;

VALDOSTA       SUNNY     73  64  73 N3        30.00R
6HR MIN TEMP:  66; 6HR MAX TEMP:  73;

ALMA           MOSUNNY   74  71  91 CALM      30.00R
6HR MIN TEMP:  71; 6HR MAX TEMP:  74;

ST SIMONS      MOSUNNY   76  74  93 W3        29.98R
6HR MIN TEMP:  75; 6HR MAX TEMP:  82;

FT STEWART     MOSUNNY   76  72  88 N7        29.99R
ALBANY         SUNNY     68  62  81 CALM      30.02S
HUNTER AFB     MOSUNNY   76  73  91 CALM      29.97S
MOODY AFB      CLOUDY    71  67  88 N5        30.00R
BRUNSWICK      MOSUNNY   73  72  94 CALM      29.99R


CITY           SKY/WX    TMP DP  RH WIND       PRES   REMARKS
BAINBRIDGE*    SUNNY     68  66  94 CALM      30.01S
MOULTRIE*      SUNNY     68  64  88 CALM      30.02R
VIDALIA*         N/A     72  70  94 N3        30.02S
WAYCROSS*      MOSUNNY   76  75  98 CALM      30.00R FOG
DOUGLAS*       SUNNY     75  72  88 NE3       30.02R
$$



USA.gov is the U.S. government's official web portal to all federal, state and local government web resources and services.